Location: Munkebjergskolens Observatorium
(55.3864°N, 10.3987°E)
Time: 04:10:33
(UTC+02:00)

QB50P2 - Pass Details

Date: 10 April 2023
Orbit: 581 x 596 km, 98.0° (Epoch: 31 May)

Event Time Altitude Azimuth Distance (km) Brightness Sun altitude
Rises 04:33:59 0° 8° (N) 2,833 ? -15.1°
Reaches altitude 10° 04:36:26 10° 355° (N) 1,924 ? -14.9°
Maximum altitude 04:39:50 25° 300° (WNW) 1,202 ? -14.5°
Enters shadow 04:41:31 19° 265° (W) 1,409 ? -14.3°
